GW7013 Weather Reports


time (UTC)temp
C
wind
direction
speed
KPH
gust
KPH
rain 1hr
cm
rain 24hr
cm
rain mn
cm
humidity
%
barometer
mb
20260506231016 7 324 1.6 6.4 0.00 0.00 0.00 91 1009.3
20260506230153 8 291 3.2 8.0 0.00 0.00 0.00 92 1009.3
20260506225049 8 299 4.8 11.3 0.00 0.00 0.00 94 1009.1
20260506224025 8 256 1.6 4.8 0.00 0.00 0.00 94 1008.9
20260506223022 8 235 1.6 3.2 0.00 0.00 0.00 94 1008.9
20260506222039 8 235 1.6 4.8 0.00 0.00 0.00 94 1009.0
20260506221015 8 305 1.6 6.4 0.00 0.00 0.00 93 1008.9
20260506220032 8 235 1.6 3.2 0.00 0.00 0.00 93 1008.8
20260506215028 8 257 1.6 6.4 0.00 0.00 0.00 94 1008.5
20260506214026 8 225 1.6 6.4 0.00 0.00 0.00 93 1008.4
20260506213024 8 298 3.2 8.0 0.00 0.00 0.00 93 1008.2
20260506212040 8 276 3.2 6.4 0.00 0.00 0.00 93 1007.9
20260506211037 8 322 3.2 6.4 0.00 0.00 0.00 93 1007.8
20260506210034 8 263 1.6 6.4 0.00 0.00 0.00 94 1007.5
20260506205031 8 300 1.6 9.7 0.00 0.00 0.00 94 1007.1
20260506204028 8 345 3.2 9.7 0.00 0.00 0.00 95 1007.0
20260506203025 8 318 3.2 9.7 0.00 0.00 0.00 96 1007.0
20260506202023 9 340 4.8 9.7 0.00 0.00 0.00 96 1006.9
20260506201022 9 307 1.6 8.0 0.00 0.00 0.00 95 1006.8
20260506200037 9 55 1.6 4.8 0.00 0.00 0.00 94 1006.7
20260506195034 10 7 3.2 8.0 0.00 0.00 0.00 94 1006.5
20260506194031 10 340 4.8 12.9 0.00 0.00 0.00 94 1006.1
20260506193048 11 325 4.8 9.7 0.00 0.00 0.00 94 1005.8
20260506192025 11 314 6.4 16.1 0.00 0.00 0.00 92 1005.7
20260506191022 14 321 4.8 9.7 0.00 0.00 0.00 93 1005.5
20260506190039 14 211 6.4 16.1 0.00 0.00 0.00 93 1005.4
20260506185016 14 216 4.8 9.7 0.00 0.00 0.00 93 1005.4
20260506184053 14 213 4.8 11.3 0.00 0.00 0.00 93 1005.1
20260506183029 14 187 3.2 8.0 0.00 0.00 0.00 93 1005.2
20260506182026 14 210 3.2 8.0 0.00 0.00 0.00 93 1005.2
20260506181023 14 222 4.8 12.9 0.00 0.00 0.00 95 1005.4
20260506180019 14 193 3.2 6.4 0.00 0.00 0.00 95 1005.3
20260506175017 14 209 3.2 6.4 0.00 0.00 0.00 95 1005.2
20260506174034 14 210 4.8 9.7 0.00 0.00 0.00 95 1005.4
20260506173031 14 197 4.8 9.7 0.00 0.00 0.00 94 1005.6
20260506172028 14 204 6.4 11.3 0.00 0.00 0.00 94 1005.7
20260506171025 14 212 6.4 11.3 0.00 0.00 0.00 94 1005.7
20260506170023 13 203 3.2 8.0 0.00 0.00 0.00 94 1005.6
20260506165018 13 205 4.8 11.3 0.00 0.00 0.00 94 1005.8
20260506164036 13 201 4.8 9.7 0.00 0.00 0.00 94 1005.7
20260506163032 13 213 6.4 12.9 0.00 0.00 0.00 94 1005.8
20260506162029 13 195 4.8 9.7 0.00 0.00 0.00 94 1006.0
20260506161047 13 201 6.4 12.9 0.00 0.00 0.00 94 1006.1
20260506160024 13 209 4.8 12.9 0.00 0.00 0.00 93 1006.2
20260506155021 13 202 4.8 12.9 0.00 0.00 0.00 94 1006.1
20260506154017 13 194 3.2 8.0 0.00 0.00 0.00 94 1006.2
20260506153036 13 203 4.8 11.3 0.00 0.00 0.00 93 1006.1
20260506152032 13 207 6.4 9.7 0.00 0.00 0.00 95 1006.1
20260506151029 13 163 3.2 6.4 0.00 0.00 0.00 96 1006.0
20260506150026 13 193 3.2 8.0 0.00 0.00 0.00 97 1006.0
20260506145024 12 133 3.2 4.8 0.00 0.00 0.00 97 1006.1
20260506144021 12 152 1.6 3.2 0.00 0.00 0.00 97 1006.2
20260506143037 12 148 1.6 4.8 0.00 0.00 0.00 97 1006.4
20260506142034 12 138 3.2 4.8 0.00 0.00 0.00 97 1006.5
20260506141031 12 152 3.2 4.8 0.00 0.00 0.00 97 1006.8
20260506140029 12 153 1.6 3.2 0.00 0.00 0.00 96 1007.1
20260506135025 12 179 4.8 9.7 0.00 0.00 0.00 95 1007.3
20260506134021 12 205 6.4 14.5 0.00 0.00 0.00 95 1007.6
20260506133017 12 188 4.8 8.0 0.00 0.00 0.00 96 1007.5
20260506132034 12 164 3.2 6.4 0.00 0.00 0.00 97 1007.4
20260506131031 12 173 3.2 6.4 0.00 0.00 0.00 98 1007.1
20260506130028 12 149 3.2 6.4 0.00 0.00 0.00 98 1007.0
20260506125025 12 160 3.2 4.8 0.00 0.00 0.00 98 1007.1
20260506124022 11 130 1.6 6.4 0.00 0.00 0.00 98 1006.9
20260506123039 11 92 1.6 3.2 0.00 0.00 0.00 98 1007.0
20260506122035 11 33 1.6 3.2 0.00 0.00 0.00 98 1007.1
20260506121031 11 139 1.6 3.2 0.00 0.00 0.00 98 1007.1
20260506120049 11 140 1.6 3.2 0.00 0.00 0.00 98 1007.1
20260506115025 11 141 1.6 3.2 0.00 0.00 0.00 98 1007.2
20260506114023 11 146 1.6 4.8 0.00 0.00 0.00 98 1007.4
20260506113019 10 155 1.6 3.2 0.00 0.00 0.00 97 1007.7
20260506112016 10 175 3.2 4.8 0.00 0.00 0.00 97 1007.9
20260506111033 10 162 1.6 4.8 0.00 0.00 0.00 97 1007.8
20260506110031 10 153 0.0 3.2 0.00 0.00 0.00 96 1007.7
20260506105027 10 151 1.6 3.2 0.00 0.00 0.00 96 1007.5
20260506104024 10 191 1.6 3.2 0.00 0.08 0.00 96 1007.4
20260506103021 10 162 1.6 3.2 0.00 0.08 0.00 96 1007.2
20260506102018 10 58 0.0 3.2 0.00 0.08 0.00 95 1007.2
20260506101035 10 166 1.6 3.2 0.00 0.08 0.00 95 1007.2
20260506100032 10 159 1.6 3.2 0.00 0.08 0.00 94 1007.2
20260506095028 10 241 0.0 3.2 0.00 0.08 0.00 94 1007.4
20260506094025 10 35 1.6 4.8 0.00 0.08 0.00 94 1007.3
20260506093023 10 172 0.0 3.2 0.00 0.08 0.00 93 1007.4
20260506092040 10 326 1.6 4.8 0.00 0.08 0.00 93 1007.2
20260506091017 10 200 3.2 4.8 0.00 0.08 0.00 92 1007.3
20260506090034 10 223 0.0 3.2 0.00 0.08 0.00 92 1007.2
20260506085050 10 3 1.6 4.8 0.00 0.08 0.00 92 1007.3
20260506084027 10 178 3.2 6.4 0.00 0.08 0.00 92 1007.3
20260506083044 10 355 3.2 6.4 0.00 0.08 0.00 92 1007.2
20260506082021 10 337 3.2 4.8 0.00 0.08 0.00 91 1007.3
20260506081018 10 165 1.6 6.4 0.00 0.08 0.00 92 1007.4
20260506073027 10 343 1.6 6.4 0.00 0.08 0.00 94 1007.8
20260506072024 10 317 1.6 4.8 0.00 0.08 0.00 94 1007.8
20260506071042 10 16 3.2 6.4 0.00 0.08 0.00 95 1007.9
20260506062027 10 32 3.2 4.8 0.00 0.08 0.00 94 1008.4
20260506061023 10 168 1.6 3.2 0.00 0.08 0.00 93 1008.8
20260506051024 11 0.0 0.0 0.00 0.08 0.00 91 1009.3
20260506045019 11 0.0 0.0 0.00 0.08 0.00 90 1009.6
20260506044016 11 0.0 0.0 0.00 0.08 0.00 90 1009.7
20260506043033 11 0.0 0.0 0.00 0.08 0.00 89 1009.6
20260506042030 12 339 0.0 3.2 0.00 0.08 0.00 85 1009.7
20260506041027 12 38 0.0 3.2 0.00 0.08 0.00 84 1009.7
20260506040023 12 145 0.0 3.2 0.00 0.08 0.00 84 1009.8
20260506035042 12 143 1.6 3.2 0.00 0.08 0.08 85 1010.0
20260506034018 12 0.0 0.0 0.00 0.08 0.08 83 1010.0
20260506033035 12 142 0.0 3.2 0.00 0.08 0.08 83 1009.7
20260506032032 12 115 1.6 6.4 0.00 0.08 0.08 84 1009.8
20260506031029 12 110 3.2 11.3 0.00 0.08 0.08 84 1009.7
20260506030026 12 118 1.6 3.2 0.00 0.08 0.08 85 1009.8
20260506025023 12 166 1.6 3.2 0.00 0.08 0.08 86 1009.7
20260506024021 12 326 3.2 9.7 0.00 0.08 0.08 86 1009.3
20260506023017 13 7 4.8 9.7 0.00 0.08 0.08 87 1009.3
20260506022034 13 348 3.2 8.0 0.00 0.08 0.08 88 1009.2
20260506021031 13 24 4.8 9.7 0.00 0.08 0.08 91 1009.2
20260506020028 13 19 4.8 11.3 0.00 0.08 0.08 97 1009.0
20260506015025 13 234 0.0 3.2 0.00 0.08 0.08 97 1009.0
20260506014022 14 191 0.0 1.6 0.00 0.08 0.08 97 1008.8
20260506013018 14 0.0 0.0 0.00 0.08 0.08 96 1008.7
20260506012035 14 0.0 1.6 0.00 0.08 0.08 96 1008.5
20260506011031 14 0.0 1.6 0.00 0.08 0.08 96 1008.3
20260506010028 15 331 0.0 3.2 0.00 0.08 0.08 96 1008.2
20260506005025 15 0.0 0.0 0.00 0.08 0.08 95 1008.1
20260506004022 15 305 0.0 1.6 0.00 0.08 0.08 95 1008.0
20260506003019 15 160 0.0 3.2 0.00 0.08 0.08 95 1007.8
20260506002016 15 181 0.0 1.6 0.00 0.08 0.08 94 1007.7
20260506001053 15 150 0.0 1.6 0.00 0.08 0.08 94 1007.6
20260506000030 15 155 0.0 3.2 0.00 0.08 0.08 94 1007.5
20260505235027 15 160 1.6 3.2 0.00 0.08 0.08 93 1007.4
20260505234024 15 303 0.0 3.2 0.00 0.08 0.08 93 1007.2
20260505233021 15 126 1.6 3.2 0.00 0.08 0.08 91 1007.5
20260505232037 16 143 0.0 1.6 0.00 0.08 0.08 89 1007.7